{"data":{"norad_id":66676,"epoch":"2026-09-20T22:07:26.577696Z","epoch_age_seconds":84512,"freshness":"FRESH","line1":"1 66676U 25276L   26263.92183539  .00002804  00000+0  13412-3 0  9999","line2":"2 66676  97.4094 335.4632 0006750  43.4738 316.7028 15.19786066 44946","mean_motion":15.19786066,"eccentricity":0.000675,"inclination_deg":97.4094,"raan_deg":335.4632,"arg_perigee_deg":43.4738,"mean_anomaly_deg":316.7028,"bstar":0.00013412,"rev_number":4494,"period_min":94.750177818777,"perigee_km":501.83949701962,"apogee_km":511.13373890387,"semimajor_km":6884.6236179617,"source":"CELESTRAK","updated_at":"2026-09-21T09:00:16.121816Z"}}